Location: Spring Creek
(38.2870°N, 100.2160°W)
Time: 23:53:55
(UTC+00:00)

CZ-2D R/B - Pass Details

Date: 08 May 2021
Orbit: 791 x 846 km, 98.7° (Epoch: 21 June)

Event Time Altitude Azimuth Distance (km) Brightness Sun altitude
Rises 08:34:32 0° 9° (N) 3,394 6.4 -28.1°
Reaches altitude 10° 08:36:56 10° 6° (N) 2,449 5.4 -27.8°
Enters shadow 08:42:03 60° 300° (WNW) 940 2.3 -27.3°
